Regional Weather Roundup
Issued by NWS Sioux Falls, SD

Home | Current Version | Previous Version | Graphics & Text | Print | Product List | Glossary Off
Versions: 1 2 3 4 5 6 7 8 9 10 11 12 13 14 15 16 17 18 19 20 21 22 23 24 25 26 27 28 29 30 31 32 33 34 35 36 37 38 39 40 41 42 43 44 45 46 47 48 49 50

000
ASUS43 KFSD 230510
RWRFSD

WEATHER ROUNDUP FOR SE SOUTH DAKOTA/SW MINNESOTA/NW IOWA
NATIONAL WEATHER SERVICE SIOUX FALLS SD
1200 AM CDT TUE SEP 23 2014

NOTE: "FAIR" INDICATES FEW OR NO CLOUDS BELOW 12,000 FEET WITH NO
SIGNIFICANT WEATHER AND OR OBSTRUCTIONS TO VISIBILITY.


SDZ038>040-050-052>070-230600-
SOUTHEAST SOUTH DAKOTA

CITY           SKY/WX    TMP DP  RH WIND       PRES   REMARKS
CHAMBERLAIN    CLOUDY    64  52  65 S9        30.04F
HURON          MOCLDY    63  50  62 S13       30.06F
MADISON        FAIR      55  50  82 S7        30.13F
MITCHELL       CLOUDY    64  52  64 S9        30.09S
SIOUX FALLS    MOCLDY    61  49  64 S12       30.14F
WINNER         LGT RAIN  62  56  80 S20G28    30.02F
YANKTON        MOCLDY    61  48  63 S8        30.14S
$$

MNZ071-072-080-081-089-090-097-098-230600-
SOUTHWEST MINNESOTA

CITY           SKY/WX    TMP DP  RH WIND       PRES   REMARKS
FAIRMONT       CLEAR     50  43  76 S5        30.19R
JACKSON        CLEAR     54  46  76 S6        30.19S
LUVERNE        MOCLDY    52  46  82 CALM      30.16F
MARSHALL       CLEAR     54  46  76 S7        30.12F
MONTEVIDEO     CLEAR     55  48  76 SW5       30.14S
PIPESTONE      PTCLDY    54  46  76 S5        30.15F
REDWOOD FALLS  CLEAR     53  48  83 S6        30.15S
TRACY          CLEAR     58  49  72 S9        30.14F
WINDOM         CLEAR     55  48  76 S5        30.17S
WORTHINGTON    PTCLDY    54  48  82 S6        30.18S
$$

IAZ001>003-012>014-020>022-031-032-NEZ013-014-SDZ071-230600-
NORTHWEST IOWA

CITY           SKY/WX    TMP DP  RH WIND       PRES   REMARKS
CHEROKEE       MOCLDY    53  51  94 S5        30.18F
DENISON        MOCLDY    57  52  82 SE6       30.18F
ESTHERVILLE    CLEAR     50  46  86 S8        30.19S
LE MARS        PTCLDY    55  52  88 CALM      30.17F
ORANGE CITY    PTCLDY    57  48  72 SE3       30.17F
SHELDON        MOCLDY    55  50  82 S7        30.16F
SIOUX CITY     PTCLDY    55  51  86 SE6       30.17S
SPENCER        PTCLDY    51  47  86 S6        30.18F
$$

ABBREVIATIONS USED IN REMARKS
   TC - TEMPERATURE IN CELSIUS
  WCI - WIND CHILL INDEX
   HX - HEAT INDEX
  VSB - VISIBILITY



USA.gov is the U.S. government's official web portal to all federal, state and local government web resources and services.